SL-12 DEB, 41641

Orbit data source: Space-Track

SL-12 DEB, 41641 is space debris in HEO originally from a launch on Thu, 25 Dec 2008 UTC launched from the Tyuratam Missile And Space Complex (TTMTR). Debris objects in space refer to the collection of defunct objects orbiting the Earth. Examples of debris include non-operational satellites, rocket bodies, and fragments generated from explosions, collisions, or faulty payload assembly.

Loading next visibility...
Identifier
41641, 2008-067M
Orbit
HEO
Country
Flag of CISCIS
Related business
Manufacturer
RKKE
Mission
Spacecraft
Bus & Motor
Unknown
Mass
Unknown
Launch date (UTC)
2008-12-25 (17 years ago)
Launch vehicle
Unknown
Launch site
Tyuratam Missile And Space Complex (TTMTR)
Object type
Payload
Rocket body
Debris
Shape & HBR
Unknown shape, 0.6 m
Radar Cross Section
Medium (>0.1 m² and <1 m²)

Expand to show TLE details & history
Last TLE update: 1 day ago

TLE from 1 day ago
0 SL-12 DEB
1 41641U 08067M   26125.05953950  .00000135  00000-0  71131-3 0  9994
2 41641  65.0636 150.3748 5542847 286.9445  21.5492  4.29398133153087
Epoch: 2026-05-05T01:25Z
TLE epoch observation values (Epoch: 2026-05-05T01:25:44.212Z)
Latitude
-0.00008°
Longitude
-93.99724°
Altitude
3,169.03 km
Speed
7.654 km/s
True Right ascension
10h 01m 30s
True Declination
0° 00' 00"
Sunlit
Object was in daylight at epoch
Visualization orbit readout
Latitude
Unknown
Longitude
Unknown
Altitude
Unknown
Speed
Unknown
Apparent Right ascension
Unknown
Apparent Declination
Unknown
Sunlit
N/A
Visualization observer readout
Local Sidereal Time
18:18:48
Azimuth
Unknown
Elevation
Unknown
Doppler factor
Unknown
Orbital elements
Apogee altitude
18,472.01 km
Perigee altitude
748.029 km
Semi-major axis
15,988.157 km
Eccentricity
0.55428
Inclination
65.0636°
RAAN
150.3748°
Arg. of periapsis
286.9445°
True anomaly
73.1637°
Mean anomaly
21.5492°
Eccentric anomaly
43.3495°
Mean motion
1.07361 °/min
Orbital period
335.32 mins
BSTAR
0.00071131
Loading maneuver chart data...
Computing Atmospheric mass density...
Loading historical data...
Loading historical data...
Loading historical data...
Loading historical data...
Loading historical data...
Loading historical data...
Loading historical data...

Documentation

Showing up to 5 results
|